Location: Newark
(48.3453°N, 0.5589°E)
Time: 07:14:53
(UTC+00:00)

Transit 4A - Visible Passes

Search period start: 16 December 2019 00:00
Search period end: 26 December 2019 00:00
Orbit: 870 x 974 km, 66.8° (Epoch: 15 December)

Date Brightness Start Highest point End Pass type
(mag) Time Alt. Az. Time Alt. Az. Time Alt. Az.
16 Dec 9.4 17:36:34 10° W 17:41:44 28° NW 17:46:48 10° NNE visible
16 Dec 10.0 19:27:21 10° NW 19:30:14 13° N 19:30:24 13° N visible
17 Dec 9.6 17:46:43 10° W 17:51:25 23° NNW 17:56:02 10° NNE visible
17 Dec 10.1 19:37:34 10° NNW 19:39:32 13° N 19:39:32 13° N visible
18 Dec 9.8 17:57:01 10° WNW 18:01:12 19° NNW 18:05:09 10° NNE visible
18 Dec 10.2 19:47:33 10° NNW 19:48:40 12° NNW 19:48:40 12° NNW visible
19 Dec 9.9 18:07:23 10° WNW 18:11:01 16° NNW 18:14:17 11° NNE visible
19 Dec 10.3 19:57:15 10° NNW 19:57:47 11° NNW 19:57:47 11° NNW visible
20 Dec 9.9 18:17:46 10° NW 18:20:54 14° NNW 18:23:24 11° NNE visible
20 Dec 10.4 20:06:46 10° NNW 20:06:54 10° NNW 20:06:54 10° NNW visible
21 Dec 9.4 16:37:14 10° W 16:42:13 26° NW 16:47:08 10° NNE visible
21 Dec 9.9 18:28:05 10° NW 18:30:48 13° N 18:32:31 12° N visible
22 Dec 9.6 16:47:27 10° WNW 16:51:56 21° NNW 16:56:22 10° NNE visible
22 Dec 9.9 18:38:13 10° NNW 18:40:45 13° N 18:41:38 12° N visible
23 Dec 9.7 16:57:46 10° WNW 17:01:44 18° NNW 17:05:38 10° NNE visible
23 Dec 9.9 18:48:06 10° NNW 18:50:41 13° N 18:50:45 13° N visible
24 Dec 9.8 17:08:09 10° NW 17:11:34 15° NNW 17:14:58 10° NNE visible
24 Dec 9.9 18:57:43 10° NNW 18:59:53 13° N 18:59:53 13° N visible
25 Dec 9.8 17:18:32 10° NW 17:21:28 14° N 17:24:23 10° NNE visible
25 Dec 9.9 19:07:09 10° NNW 19:09:01 14° N 19:09:01 14° N visible
